History for Ft Lauderdale, FL

Friday, February 17, 2017 — View Current Conditions

Jump to Data:

Date:
Airport Code:
Recently Viewed Airport Codes: KFLL
Daily Summary
  Actual Average Record
Temperature
Mean Temperature 68°F 71°F  
Max Temperature 78°F 78°F 89°F (1935)
Min Temperature 57°F 64°F 36°F (1919)
Degree Days
Heating Degree Days 0 1  
Month to date heating degree days 0 17  
Since 1 July heating degree days 29 97  
Cooling Degree Days 3 7  
Month to date cooling degree days 134 110  
Year to date cooling degree days 347 280  
Growing Degree Days 17 (Base 50)    
Moisture
Dew Point 56°F    
Average Humidity 67    
Maximum Humidity 86    
Minimum Humidity 47    
Precipitation
Precipitation 0.00 in 0.11 in 1.45 in (1994)
Month to date precipitation 0.13 1.94  
Year to date precipitation 1.84 5.57  
Snow
Snow 0.00 in in in ()
Month to date snowfall 0.0  
Since 1 July snowfall 0.0  
Snow Depth 0.00 in    
Sea Level Pressure
Sea Level Pressure 30.05 in    
Wind
Wind Speed 8 mph (ENE)    
Max Wind Speed 16 mph    
Max Gust Speed 20 mph    
Visibility 10 miles    
Events      
T = Trace of Precipitation, MM = Missing Value Source: NWS Daily Summary

Show full METARS

(help) - Comma Delimited File

Hourly Observations

Time(EST) Temperature Dew Point Humidity Sea Level Pressure Visibility Wind Direction Wind Speed Gust Speed Precipitation Events Conditions
12:53 AM 61.0°F 53.1°F 75% 30.03 in 10.0 miles WNW 4.6 mph - N/A   Clear
1:53 AM 60.1°F 54.0°F 80% 30.03 in 10.0 miles WNW 4.6 mph - N/A   Clear
2:53 AM 57.9°F 54.0°F 87% 30.02 in 10.0 miles NW 4.6 mph - N/A   Clear
3:53 AM 57.9°F 53.1°F 84% 30.02 in 10.0 miles NW 5.8 mph - N/A   Clear
4:53 AM 57.9°F 52.0°F 81% 30.03 in 10.0 miles NW 5.8 mph - N/A   Clear
5:53 AM 57.9°F 52.0°F 81% 30.04 in 10.0 miles NNW 4.6 mph - N/A   Partly Cloudy
6:53 AM 57.9°F 53.1°F 84% 30.06 in 10.0 miles NNW 5.8 mph - N/A   Partly Cloudy
7:53 AM 60.1°F 53.1°F 78% 30.08 in 10.0 miles NNW 5.8 mph - N/A   Partly Cloudy
8:53 AM 66.9°F 54.0°F 63% 30.09 in 10.0 miles North 8.1 mph - N/A   Partly Cloudy
9:53 AM 73.0°F 55.0°F 53% 30.10 in 10.0 miles North 8.1 mph - N/A   Partly Cloudy
10:53 AM 75.9°F 57.0°F 52% 30.10 in 10.0 miles NE 9.2 mph - N/A   Scattered Clouds
11:53 AM 75.9°F 57.0°F 52% 30.09 in 10.0 miles ENE 6.9 mph - N/A   Scattered Clouds
12:53 PM 77.0°F 55.9°F 48% 30.07 in 10.0 miles ESE 9.2 mph - N/A   Scattered Clouds
1:53 PM 73.9°F 55.9°F 53% 30.06 in 10.0 miles SE 8.1 mph 17.3 mph N/A   Clear
2:53 PM 75.0°F 57.9°F 55% 30.04 in 10.0 miles ESE 12.7 mph - N/A   Mostly Cloudy
3:53 PM 75.0°F 57.9°F 55% 30.04 in 10.0 miles ESE 11.5 mph - N/A   Mostly Cloudy
4:53 PM 73.9°F 57.9°F 57% 30.04 in 10.0 miles East 10.4 mph - N/A   Mostly Cloudy
5:53 PM 72.0°F 57.9°F 61% 30.04 in 10.0 miles SE 11.5 mph - N/A   Mostly Cloudy
6:53 PM 72.0°F 57.9°F 61% 30.04 in 10.0 miles ESE 11.5 mph - N/A   Scattered Clouds
7:53 PM 71.1°F 57.9°F 63% 30.05 in 10.0 miles East 9.2 mph - N/A   Mostly Cloudy
8:53 PM 71.1°F 57.0°F 61% 30.06 in 10.0 miles SE 10.4 mph - N/A   Mostly Cloudy
9:53 PM 70.0°F 57.0°F 63% 30.06 in 10.0 miles ESE 9.2 mph - N/A   Mostly Cloudy
10:53 PM 70.0°F 57.9°F 65% 30.05 in 10.0 miles SE 9.2 mph - N/A   Mostly Cloudy
11:53 PM 70.0°F 59.0°F 68% 30.05 in 10.0 miles SE 5.8 mph - N/A   Mostly Cloudy